Погода в Коленковцах

Украина / Черновицкая область     48°24′46″N   26°07′45″E
темп.,
°C
ветер,
м/с
пор.,
м/с
влажн.,
%
обл.,
%
осадки,
мм/ч
давл.,
гПа
погр.,
м
27 февраля, сб
сб2723:00+6з22870 0.0 102224
02:00+5зсз38881 0.0 1023155
05:00+5сз4119384 0.2 1023638
08:00+4зсз4119092 0.3 1023785
11:00+5сз71179100 0.6 10241069
14:00+5сз71170100 0.7 10241265
17:00+4сз61193100 0.1 1024891
20:00+3сз61381100 0.3 1026918
28 февраля, вс
вс2823:00+2сз71384100 0.1 1027811
02:00+2сз71387100 0.1 1028826
05:00+2сз6128496 0.1 1028901
08:00+1сз7118798 0.1 1029941
11:00+2сз71077100 0.1 10301059
14:00+3сз71069100 0.1 1030978
17:00+4сз6106333 0.0 10291089
20:00+2зсз5127852 0.0 1030465
1 марта, пн
пн123:00+2зсз6148081 0.0 1029601
02:00+2зсз8158890 0.4 1028700
05:00+2сз51297100 2.1 1028570
08:00+2ссз4997100 2.5 1029459
11:00+4с687693 0.3 1031907
14:00+5с467096 0.4 10331009
17:00+4ссз477291 0.0 1033675
20:00+3сз387896 0.1 1035359
2 марта, вт
вт223:00+3зсз268494 0.0 1036220
02:000зсз379165 0.0 1035223
05:000зсз4109165 0.0 1035281
08:00+1зсз4118872 0.0 1034315
11:00+6зсз697227 0.0 1033444
14:00+10зсз7115914 0.0 1031701
17:00+9зсз612620 0.0 1029609
20:00+6сз415740 0.0 1031407
3 марта, ср
ср323:00+5зсз412800 0.0 1032344
02:00+3зсз37870 0.0 1032173
05:00+2зсз33880 0.0 103169
08:00+2зсз34840 0.0 1031117
11:00+7сз36650 0.0 1030431
14:00+10сз35530 0.0 1029663
17:00+10сз23600 0.0 102898
20:00+6сз127214 0.0 102822